Simultaneous Nadir Overpasses (SNOs) Predictions

Prediction of SNOs between AQUA and METOP-A Satellite Orbit:

Table of predicted SNOs for the next 14.0 days since TLE Epoch: 3/20/2015
Index Date (AQUA) Time (AQUA) Lat,Lon (AQUA) SZA (AQUA ) Date (METOP-A) Time (METOP-A) Lat,Lon (METOP-A) SZA (METOP-A ) Distance(km) Time Diff (sec)
1 03/22/2015 03:28:22 -73.53, -57.07 106.92 03/22/2015 03:27:11 -73.50, -58.33 106.89 39.94 71
2 03/22/2015 04:17:56 73.86, 109.84 73.43 03/22/2015 04:17:43 73.87, 109.87 73.44 1.24 13
3 03/22/2015 05:07:23 -73.94, -82.69 106.50 03/22/2015 05:08:24 -73.92, -82.67 106.53 2.35 61
4 03/24/2015 23:02:42 -73.79, 8.82 107.76 03/24/2015 23:01:28 -73.73, 8.61 107.80 9.36 74
5 03/24/2015 23:52:11 73.86, 176.29 72.31 03/24/2015 23:52:05 73.85, 176.22 72.30 2.60 6
6 03/25/2015 00:41:38 -73.94, -16.24 107.63 03/25/2015 00:42:45 -73.95, -16.19 107.62 2.13 67
7 03/27/2015 18:36:57 -73.81, 75.22 108.85 03/27/2015 18:35:48 -73.80, 75.18 108.85 1.47 69
8 03/27/2015 19:26:26 73.89,-117.32 71.22 03/27/2015 19:26:26 73.87,-117.33 71.20 2.37 0
9 03/27/2015 20:15:53 -73.96, 50.16 108.72 03/27/2015 20:17:06 -73.98, 50.26 108.71 3.67 73
10 03/30/2015 14:11:10 -73.80, 141.69 109.97 03/30/2015 14:10:08 -73.81, 141.62 109.94 2.81 62
11 03/30/2015 15:00:39 73.88, -50.86 70.11 03/30/2015 15:00:46 73.88, -50.90 70.11 1.31 7
12 03/30/2015 15:50:11 -74.21, 116.04 109.56 03/30/2015 15:51:21 -74.23, 117.31 109.58 38.62 70
13 04/02/2015 09:45:24 -73.81,-151.89 111.05 04/02/2015 09:44:29 -73.82,-151.96 111.03 2.21 55
14 04/02/2015 10:34:53 73.90, 15.54 69.04 04/02/2015 10:35:07 73.88, 15.51 69.01 3.11 14




NCC Satellite Simultaneous Nadir Overpasses (SNOs) Prediction Service
